Location: Be?chatów
(51.3665°N, 19.3745°E)
Time: 17:51:26
(UTC+00:00)

Cosmos 2360 Rocket - Pass Details

Date: 19 May 2025
Orbit: 834 x 842 km, 71.0° (Epoch: 20 June)

Event Time Altitude Azimuth Distance (km) Brightness Sun altitude
Rises 23:09:45 0° 326° (NW) 3,394 6.1 -18.3°
Reaches altitude 10° 23:12:19 10° 319° (NW) 2,455 5.2 -18.3°
Maximum altitude 23:17:32 41° 251° (WSW) 1,195 2.7 -18.2°
Enters shadow 23:19:32 30° 207° (SSW) 1,448 2.9 -18.1°
